Regional Weather Roundup
Issued by NWS Wakefield, VA

Home | Current Version | Previous Version | Text Only | Print | Product List | Glossary On
Versions: 1 2 3 4 5 6 7 8 9 10 11 12 13 14 15 16 17 18 19 20 21 22 23 24 25 26 27 28 29 30 31 32 33 34 35 36 37 38 39 40 41 42 43 44 45 46 47 48 49 50
000
ASUS41 KAKQ 210410
RWRAKQ

REGIONAL WEATHER ROUNDUP
NATIONAL WEATHER SERVICE WAKEFIELD VA
1200 AM EDT THU AUG 21 2014

Note: "fair" indicates few or no clouds below 12,000 feet with no
significant weather and/or obstructions to visibility. * = Denotes
station may not report precipitation (e.g., rain,snow,etc.),
thunder or fog.

VAZ042-051-052>054-056-210500-
NORTHERN VIRGINIA

CITY           SKY/WX    TMP DP  RH WIND       PRES   REMARKS
WASH NATIONAL  PTCLDY    73  66  78 CALM      30.03R
DULLES         PTCLDY    66  65  96 E3        30.03R
FORT BELVOIR   CLEAR     66  64  94 NE1       30.02F FOG
QUANTICO       CLEAR     71  67  87 CALM      30.03R
FREDERICKSBRG* PTCLDY    70  70 100 CALM      30.02S
STAFFORD*      CLEAR     67  67 100 CALM      30.07S FOG
WARRENTON      CLEAR     69  69 100 CALM      30.01F
CULPEPER*      PTCLDY   N/A N/A N/A CALM      30.02F HAZE
MANASSAS*      PTCLDY    68  68 100 SE3       30.02S
LEESBURG*      CLEAR     66  66 100 CALM      30.04R
WINCHESTER     MOCLDY    68  68 100 CALM      30.02S FOG
$$

VAZ048-049-060>072-079>083-210500-
CENTRAL AND SOUTH CENTRAL VIRGINIA...AND NORTH CENTRAL NORTH CAROLINA

CITY           SKY/WX    TMP DP  RH WIND       PRES   REMARKS
RICHMOND       CLOUDY    75  69  81 S5        30.02S
CHESTERFIELD*  CLOUDY    75  61  60 NW7       30.04R
HANOVER        CLOUDY    72  70  93 NW3       30.04R
TAPPAHANNOCK*  CLOUDY    73  66  80 CALM      30.02S
CHARLOTTSVILLE FOG       68  67  96 VRB3      30.05R VSB 3/4
ORANGE*        MOCLDY    68  66  94 CALM      30.03F
LOUISA*        MOCLDY    70  68  94 CALM      30.02F
FARMVILLE*     RAIN      70  70 100 E6        30.02F
SOUTH HILL*    PTCLDY    75  75 100 S3        30.07F FOG
ROANOKE RAPIDS PTCLDY    72  72 100 CALM      30.02S
RALEIGH        MOCLDY    73  69  87 CALM      30.03S
$$

VAZ088>098-210500-
SOUTHEAST VIRGINIA

CITY           SKY/WX    TMP DP  RH WIND       PRES   REMARKS
NORFOLK        PTCLDY    74  68  81 S5        30.03R
VIRGINIA BEACH PTCLDY    74  69  85 CALM      30.02R
NORFOLK NAVAL  MOCLDY    76  69  79 SE3       30.04R
WEST POINT*    CLOUDY    75  70  84 E5        30.03F
NEWPORT NEWS   CLOUDY    77  70  79 E3        30.03R
LANGLEY AFB    MOCLDY    75  72  89 S5        30.02R
FORT EUSTIS    CLOUDY    75  74  98 SE8       30.01R
WILLIAMSBURG*  CLOUDY    79  72  78 S9        30.03S
FRANKLIN*      MOCLDY    73  72  94 SE5       30.01F
WAKEFIELD      CLOUDY    75  70  84 CALM      30.01R
$$

VAZ020-022-025-037-045-210500-
WESTERN AND SOUTHWEST VIRGINIA

CITY           SKY/WX    TMP DP  RH WIND       PRES   REMARKS
STAUNTON*      FOG       66  64  93 CALM      30.08S VSB 1
HOT SPRINGS VA MOCLDY    65  60  82 NW6       30.21R
LYNCHBURG      MOCLDY    72  71  97 N3        30.05S FOG
DANVILLE       MOCLDY    74  71  91 CALM      30.03R
MARTINSVILLE   PTCLDY    71  70  99 CALM      30.06F FOG
ROANOKE        PTCLDY    74  66  76 CALM      30.07R
BLACKSBURG     PTCLDY    68  68 100 CALM      30.12F FOG
DUBLIN*        MOCLDY    72  69  90 CALM      30.12S
MARION*        CLOUDY    69  65  86 W9        30.16S
HILLSVILLE*    CLOUDY    71  66  84 NW8       30.13F
RICHLANDS*     CLOUDY    69  65  88 W8        30.16R
WISE*          CLOUDY    64  64 100 SW10      30.18R
ABINGDON*      CLOUDY    69  69  99 W6        30.14S
$$

MDZ021>025-VAZ099-100-210500-
SOUTHERN MARYLAND AND THE DELMARVA PENINSULA

CITY           SKY/WX    TMP DP  RH WIND       PRES   REMARKS
PATUXENT RIVER NOT AVBL
BAY BRIDGE APT   N/A     73  63  68 SE5       30.03R
LEONARDTOWN    CLOUDY    70  64  83 CALM      30.05R
DOVER          CLOUDY    71  67  89 S6        30.03R
GEORGETOWN     MOCLDY    69  65  86 S8        30.05R
EASTON         MOCLDY    72  66  80 SE3       30.07S
CAMBRIDGE      MOCLDY    72  64  78 SE5       30.03S
SALISBURY      MOCLDY    71  65  81 N3        30.05R
OCEAN CITY     CLOUDY    74  66  76 VRB6      30.03S
WALLOPS ISLAND PTCLDY    71  68  90 CALM      30.05R
ACCOMACK*      RAIN      70  68  94 CALM      30.04R
$$

NCZ012>017-030>032-210500-
EASTERN NORTH CAROLINA

CITY           SKY/WX    TMP DP  RH WIND       PRES   REMARKS
ELIZABETH CITY PTCLDY    75  71  87 S5        30.03F
AHOSKIE*       CLEAR     73  72  96 S3        30.02F
EDENTON*       CLEAR     76  73  91 SE7       30.03F
CURRITUCK*     CLEAR     73  67  80 CALM      30.03F
KILL DEVIL HLS CLEAR     74  71  90 CALM      30.03S
MANTEO         CLEAR     72  72 100 CALM      30.05R
CAPE HATTERAS  PTCLDY    74  73  97 CALM      30.04R
GOLDSBORO      CLEAR     77  76  98 S3        30.01F
WASHINGTON     CLEAR     75  74  95 CALM      30.03S
GREENVILLE     CLEAR     77  75  94 CALM      30.04S FOG
NEW BERN       CLEAR     77  73  87 CALM      30.04F
WILMINGTON     CLEAR     76  74  93 CALM      30.03S
$$

VAZ048-210500-
ELSEWHERE

CITY           SKY/WX    TMP DP  RH WIND       PRES   REMARKS
HARRISBURG PA  MOCLDY    73  66  78 S5        30.01R
BALTIMORE      PTCLDY    71  64  78 CALM      30.02S
ANNAPOLIS      PTCLDY    74  64  71 S7        30.02S HAZE
ANDREWS AFB    CLEAR     67  67  99 SE3       30.03R
WILMINGTON DE  CLOUDY    73  67  81 SE6       30.04R
PHILADELPHIA   CLOUDY    73  63  70 S5        30.04R
WILDWOOD NJ*   CLOUDY    70  63  78 CALM      30.05R
ATLANTIC CITY  MOCLDY    65  61  87 CALM      30.04R
HENDERSON NC   PTCLDY    73  70  89 S3        30.03S
GREENSBORO     PTCLDY    77  71  82 W6        30.04S
ROCKY MOUNT    CLEAR     74  72  93 CALM      30.02S FOG
FAYETTEVILLE   CLEAR     78  75  90 S5        30.02S
CHARLOTTE      CLOUDY    78  70  76 NW3       30.06S
$$

VAZ100-210500-
MARINE

STATION/POSITION TIME  TEMP    WIND        PRES    WAVE   SWELL
                       AIR SEA DIR/SP/G            HT/PER HT/PER
                 (UTC) (F)     (DEG/KT/KT) (MB)    (FT/S) (FT/S)
44066 TX TWR #4  0400   71 73   60/ 12/ 14 1015.7F   3/ 6   3/ 6
CAPE MAY NJ      0400   72 80  160/  2/  2 1016.7R
LEWES DE         0400   71 75  210/  2/  3 1016.7R
15NM E FENWICK I 0400   74 75              1017.1R   3/ 6
OCEAN-CITY-INLET 0400   74 76  170/  4/  6 1017.0S
WACHAPREAGUE VA  0400   75 81  150/  3/  4 1017.5R
THOMAS POINT MD  0400   76 78  150/ 12/ 12 1017.2R
GOOSES REEF MD   0400   76     150/ 10/ 12 1017.0F
COVE POINT MD    0400   75     170/ 12/ 13 1016.6S
SOLOMONS ISLAND  0400      80                N/A
BISHOPS HEAD MD  0400   74 79  110/  9/ 11 1016.6R
PINEY POINT MD   0400          180/  9/ 11   N/A
POTOMAC MD       0400   76     170/ 12/ 14 1015.9F
CAMBRIDGE MD     0400   72 78  130/  3/  6 1016.6F
LEWISETTA VA     0400   74 79  180/  6/  7 1016.3S
RAPPAHANNOCK LGT 0400          150/  8/  9 1017.5F
STINGRAY PT      0400   77     180/ 12/ 14 1017.3F
YORK RVR RNG VA  0400   77     180/  9/ 10 1016.3S
YORKTOWN VA      0400   76 80  140/  3/  4 1016.6S
JAMESTOWN VA     0400   75     160/  8/ 12   N/A
DOMINION TERM VA 0400   76     180/  6/  9 1016.8R
KIPTOPEKE VA     0400      81  170/  7/  9   N/A
CHES BAY BRIDGE  0400   76 78  140/  8/  9 1016.3R
CAPE HENRY VA    0400   75     150/  2/  5 1015.4R
CHESAPEAKE LGHT  0300   76     160/ 13/ 13 1016.7R
WILLOUBY STN VA  0400   76      30/  3/  4 1015.7R
S CRANEY ISL VA  0400          150/  8/ 10 1016.4R
CAPE HENRY BUOY  0400      77                N/A     2/ 6
1ST LANDING BUOY 0400   76     160/  4/  6 1016.5R
CAPE CHARLES BUO 0400      77                N/A     2/ 6   2/ 6
OFFSHORE WE BUOY 0400      77                N/A     3/ 6   2/ 6
64NM E OF VA BCH 0400   77 78  100/  6/  8 1016.5R   3/ 6   2/ 6
DUCK PIER NC     0400   77 79  170/  6/  6 1016.3F
44056 DUCK FRF   0400                        N/A     2/ 6
OREGON INLET NC  0400   76 81  160/  1/  2 1017.2R
HATTERAS NC      0400   79 81   CALM  /  2 1017.6R
DIAMOND SHLS NC  0400   78      CALM  /  4 1017.0S   2/ 6
CAPE LOOKOUT NC  0300   80     250/  4/  5 1016.9R
$$



USA.gov is the U.S. government's official web portal to all federal, state and local government web resources and services.